Total_Precipitation_Accumulation
1.00 1.11 1.05 0.86 0.81 0.76 0.92 1.15 1.30 1.21 1.09 1.00 1.03 1.08 1.06 1.12 1.22 1.11 1.13 1.20 1.11 1.00 0.91 0.86 0.84 0.81 0.81 0.87 0.92 0.94 0.94 0.99 1.10 1.25 1.41 1.61 1.86 2.09
1.19 1.19 1.11 1.00 1.02 0.87 0.91 1.09 1.26 1.39 1.35 1.01 1.02 1.04 1.13 1.05 1.18 1.10 1.14 1.19 1.07 0.98 0.88 0.84 0.81 0.79 0.77 0.77 0.81 0.85 0.86 0.83 0.87 0.94 1.01 1.10 1.18 1.34
1.40 1.32 1.27 1.25 1.24 1.11 1.12 1.19 1.25 1.41 1.45 1.21 1.12 1.21 1.29 1.25 1.26 1.22 1.15 1.16 1.09 1.07 0.92 0.85 0.81 0.77 0.78 0.77 0.77 0.78 0.81 0.82 0.83 0.84 0.88 0.91 0.89 0.88
1.77 1.82 1.63 1.51 1.47 1.34 1.33 1.29 1.29 1.38 1.43 1.40 1.33 1.36 1.36 1.35 1.34 1.17 0.99 0.95 1.00 1.09 1.00 0.92 0.88 0.83 0.79 0.77 0.78 0.77 0.78 0.77 0.78 0.77 0.76 0.77 0.78 0.77
1.64 1.83 1.83 1.86 1.68 1.59 1.51 1.44 1.39 1.34 1.42 1.41 1.35 1.47 1.52 1.51 1.37 1.08 0.96 0.99 0.92 1.05 1.05 0.90 0.82 0.80 0.77 0.72 0.70 0.70 0.68 0.68 0.69 0.70 0.67 0.63 0.62 0.61
1.47 1.54 1.65 1.87 1.83 1.77 1.67 1.62 1.60 1.59 1.61 1.56 1.52 1.61 1.80 1.84 1.60 1.26 1.11 1.08 1.02 0.91 0.96 0.87 0.82 0.78 0.75 0.70 0.66 0.64 0.63 0.65 0.66 0.64 0.64 0.62 0.57 0.54
1.50 1.44 1.44 1.61 1.69 1.70 1.56 1.57 1.67 1.71 1.72 1.70 1.69 1.77 1.86 1.96 1.69 1.41 1.23 1.15 1.09 0.96 0.86 0.77 0.74 0.73 0.76 0.78 0.76 0.68 0.64 0.64 0.65 0.65 0.65 0.63 0.61 0.60
1.75 1.66 1.54 1.45 1.45 1.49 1.56 1.59 1.62 1.62 1.66 1.69 1.67 1.71 1.78 1.83 1.89 1.69 1.44 1.22 1.10 0.99 0.94 0.83 0.75 0.72 0.65 0.61 0.72 0.70 0.65 0.62 0.58 0.57 0.59 0.62 0.60 0.55
1.70 1.68 1.49 1.35 1.40 1.37 1.53 1.58 1.51 1.45 1.41 1.46 1.51 1.57 1.86 2.05 2.20 1.93 1.67 1.47 1.26 1.11 1.00 0.86 0.78 0.71 0.63 0.61 0.72 0.64 0.59 0.57 0.54 0.51 0.51 0.52 0.55 0.56
1.34 1.44 1.41 1.32 1.31 1.33 1.27 1.18 1.13 1.15 1.14 1.08 1.14 1.34 1.63 2.05 2.26 2.24 2.15 1.91 1.67 1.34 1.10 0.93 0.76 0.70 0.67 0.62 0.72 0.69 0.62 0.58 0.55 0.52 0.47 0.45 0.48 0.52
1.13 1.14 1.14 1.07 1.11 1.08 1.00 0.91 0.86 0.88 0.91 0.94 0.96 1.12 1.34 1.62 1.96 2.11 2.03 1.81 1.54 1.24 1.01 0.88 0.76 0.74 0.69 0.62 0.64 0.72 0.67 0.62 0.61 0.60 0.59 0.56 0.54 0.58
1.12 1.16 1.25 1.10 0.97 0.82 0.80 0.83 0.75 0.73 0.78 0.79 0.80 0.85 0.96 1.16 1.54 1.67 1.65 1.62 1.44 1.21 0.95 0.86 0.76 0.81 0.74 0.61 0.54 0.55 0.59 0.66 0.67 0.67 0.66 0.67 0.70 0.63
0.90 0.91 1.02 1.02 0.83 0.69 0.70 0.71 0.66 0.64 0.67 0.66 0.65 0.69 0.80 0.94 1.11 1.37 1.46 1.38 1.27 1.07 0.87 0.88 0.80 0.80 0.78 0.66 0.59 0.56 0.53 0.52 0.58 0.65 0.71 0.73 0.74 0.69
0.86 0.90 0.99 1.01 0.81 0.69 0.60 0.58 0.54 0.49 0.53 0.60 0.59 0.60 0.68 0.80 0.98 1.20 1.39 1.39 1.27 1.15 1.07 1.05 0.98 0.90 0.83 0.71 0.60 0.53 0.54 0.54 0.57 0.59 0.62 0.75 0.74 0.73
0.92 1.13 1.15 1.09 0.93 0.77 0.70 0.68 0.56 0.48 0.52 0.58 0.59 0.58 0.61 0.72 0.96 1.22 1.42 1.53 1.44 1.28 1.18 1.09 1.04 1.01 0.99 0.83 0.67 0.63 0.64 0.65 0.61 0.60 0.60 0.61 0.61 0.64
0.95 1.14 1.24 1.26 1.16 1.01 0.91 0.83 0.66 0.62 0.66 0.67 0.68 0.72 0.78 0.89 1.05 1.15 1.30 1.44 1.48 1.35 1.20 1.14 1.09 1.13 1.10 0.96 0.83 0.72 0.64 0.64 0.63 0.64 0.66 0.66 0.64 0.63
0.89 1.11 1.29 1.42 1.43 1.38 1.24 1.12 0.99 0.88 0.80 0.81 0.85 0.86 0.87 0.94 1.02 1.15 1.29 1.34 1.31 1.16 1.08 1.08 1.09 1.11 1.10 1.04 0.87 0.66 0.58 0.52 0.50 0.59 0.71 0.72 0.68 0.65
0.80 1.02 1.27 1.46 1.53 1.61 1.59 1.47 1.28 1.11 1.03 1.00 0.98 0.97 0.97 0.96 1.00 1.13 1.28 1.34 1.24 1.10 1.01 0.96 1.06 1.16 1.14 1.00 0.82 0.64 0.53 0.49 0.48 0.54 0.62 0.65 0.57 0.52
0.72 0.88 1.00 1.15 1.32 1.51 1.58 1.56 1.40 1.26 1.26 1.23 1.14 1.09 1.11 1.09 1.08 1.16 1.29 1.37 1.35 1.22 1.12 1.04 1.07 1.11 1.04 0.81 0.61 0.56 0.56 0.51 0.53 0.54 0.55 0.57 0.52 0.46
0.59 0.70 0.78 0.90 1.08 1.33 1.49 1.55 1.50 1.38 1.37 1.39 1.35 1.28 1.26 1.21 1.14 1.11 1.21 1.31 1.34 1.30 1.23 1.13 1.00 0.95 0.93 0.84 0.74 0.60 0.56 0.64 0.66 0.62 0.57 0.58 0.57 0.59
0.62 0.67 0.71 0.82 0.97 1.18 1.39 1.54 1.56 1.49 1.42 1.47 1.46 1.37 1.32 1.28 1.17 1.09 1.14 1.27 1.34 1.33 1.20 1.05 0.93 1.00 1.15 1.26 1.07 0.76 0.63 0.65 0.76 0.77 0.77 0.80 0.74 0.71
0.74 0.73 0.78 0.86 1.00 1.23 1.42 1.51 1.54 1.50 1.45 1.48 1.46 1.37 1.31 1.28 1.18 1.13 1.14 1.20 1.22 1.24 1.20 1.18 1.27 1.32 1.33 1.28 1.04 0.80 0.73 0.74 0.81 0.89 0.88 0.84 0.80 0.72
0.79 0.77 0.78 0.84 1.01 1.21 1.35 1.47 1.51 1.51 1.49 1.45 1.41 1.34 1.29 1.28 1.26 1.23 1.18 1.19 1.24 1.28 1.40 1.44 1.42 1.40 1.29 1.21 1.13 1.02 0.93 0.93 0.97 0.95 0.81 0.72 0.68 0.66